Date String (YYYY-MM-DD hh:mm:ss) UTC,Instrument flags,Ambient pressure (hPa),Sample flow (lpm),Bypass flow (lpm),Sample temperature (°C),Ambient temperature (°C),ASC tube jacket temperature (°C),LED temperature (°C),Box temperature (°C),Sample RH (%),Span deviation,Mass concentration (μg/m³),Mass concentration (μg/m³),Mass concentration (μg/m³)
DateTimeUTC,F1_M11,P_M11,Q1_M11,Q2_M11,T1_M11,T2_M11,T3_M11,T4_M11,T5_M11,U1_M11,ZSPAN_M11,X2_M11,X0_M11,X1_M11
2022-05-19 17:00:00,,0814.2,5.00,0.00,29.5,27.6,00.0,38.4,31.2,10.0,0000.0,0003.25,0010.15,0001.59
2022-05-19 17:01:00,,0814.1,5.00,0.00,29.5,27.7,00.0,38.4,31.2,09.7,0000.0,0003.22,0009.47,0001.59
2022-05-19 17:02:00,,0814.0,4.99,0.00,29.5,27.9,00.0,38.4,31.3,10.1,0000.0,0003.24,0009.60,0001.59
2022-05-19 17:03:00,,0814.0,5.00,0.00,29.5,28.0,00.0,38.4,31.3,10.3,0000.0,0003.26,0010.06,0001.58
2022-05-19 17:04:00,,0814.1,5.00,0.00,29.5,28.1,00.0,38.4,31.3,09.8,0000.0,0003.23,0010.36,0001.57
2022-05-19 17:05:00,,0814.0,5.00,0.00,29.5,28.2,00.0,38.4,31.4,09.5,0000.0,0003.21,0010.36,0001.55
2022-05-19 17:06:00,,0814.0,5.00,0.00,29.5,28.3,00.0,38.4,31.4,09.6,0000.0,0003.21,0010.25,0001.56
2022-05-19 17:07:00,,0814.1,5.01,0.00,29.6,28.4,00.0,38.4,31.4,09.7,0000.0,0003.23,0009.97,0001.56
2022-05-19 17:08:00,,0814.1,5.01,0.00,29.6,28.5,00.0,38.4,31.5,10.1,0000.0,0003.25,0010.28,0001.55
2022-05-19 17:09:00,,0813.9,4.99,0.00,29.6,28.6,00.0,38.4,31.5,10.2,0000.0,0003.22,0008.80,0001.54
2022-05-19 17:10:00,,0814.1,5.00,0.00,29.6,28.7,00.0,38.4,31.6,09.7,0000.0,0003.22,0008.95,0001.55
2022-05-19 17:11:00,,0814.2,5.00,0.00,29.7,28.7,00.0,38.5,31.6,09.9,0000.0,0003.24,0009.14,0001.53
2022-05-19 17:12:00,,0814.0,5.01,0.00,29.7,28.8,00.0,38.5,31.6,09.4,0000.0,0003.25,0009.20,0001.52
2022-05-19 17:13:00,,0813.9,5.00,0.00,29.7,28.7,00.0,38.5,31.6,09.5,0000.0,0003.25,0009.43,0001.51
2022-05-19 17:14:00,,0814.2,4.99,0.00,29.7,27.8,00.0,38.4,31.4,09.4,0000.0,0003.29,0009.48,0001.53
2022-05-19 17:15:00,,0814.2,5.01,0.00,29.6,27.2,00.0,38.4,31.2,09.5,0000.0,0003.31,0008.84,0001.55
2022-05-19 17:16:00,,0814.2,4.99,0.00,29.5,27.2,00.0,38.4,31.2,09.6,0000.0,0003.33,0008.90,0001.56
2022-05-19 17:17:00,,0814.2,5.00,0.00,29.5,27.3,00.0,38.4,31.1,10.0,0000.0,0003.32,0008.85,0001.56
2022-05-19 17:18:00,,0814.1,5.00,0.00,29.4,27.4,00.0,38.4,31.2,09.8,0000.0,0003.33,0009.63,0001.58
2022-05-19 17:19:00,,0814.2,4.99,0.00,29.4,27.6,00.0,38.3,31.2,09.7,0000.0,0003.31,0009.33,0001.59
2022-05-19 17:20:00,,0814.2,5.00,0.00,29.4,27.7,00.0,38.3,31.2,10.0,0000.0,0003.33,0009.10,0001.60
2022-05-19 17:21:00,,0813.9,4.99,0.00,29.4,27.9,00.0,38.3,31.3,10.0,0000.0,0003.32,0008.78,0001.60
2022-05-19 17:22:00,,0813.4,5.00,0.00,29.5,28.0,00.0,38.3,31.3,09.8,0000.0,0003.30,0009.33,0001.62
2022-05-19 17:23:00,,0813.4,4.99,0.00,29.5,28.2,00.0,38.3,31.3,09.2,0000.0,0003.25,0009.28,0001.62
2022-05-19 17:24:00,,0813.4,4.99,0.00,29.5,28.3,00.0,38.3,31.3,09.5,0000.0,0003.23,0008.93,0001.63
2022-05-19 17:25:00,,0813.5,5.00,0.00,29.5,28.4,00.0,38.4,31.4,09.8,0000.0,0003.21,0008.78,0001.62
2022-05-19 17:26:00,,0813.6,5.00,0.00,29.5,28.5,00.0,38.4,31.4,10.0,0000.0,0003.24,0008.94,0001.62
2022-05-19 17:27:00,,0813.5,4.99,0.00,29.6,28.5,00.0,38.4,31.5,10.1,0000.0,0003.21,0009.04,0001.61
2022-05-19 17:28:00,,0813.5,5.00,0.00,29.6,28.6,00.0,38.4,31.5,10.3,0000.0,0003.23,0009.33,0001.59
2022-05-19 17:29:00,,0813.5,5.02,0.00,29.6,28.7,00.0,38.4,31.5,10.9,0000.0,0003.26,0009.20,0001.60
2022-05-19 17:30:00,,0813.5,4.99,0.00,29.7,28.7,00.0,38.4,31.6,10.2,0000.0,0003.27,0009.22,0001.62
2022-05-19 17:31:00,,0813.3,5.00,0.00,29.7,28.7,00.0,38.4,31.6,10.1,0000.0,0003.28,0009.16,0001.62
2022-05-19 17:32:00,,0813.3,5.01,0.00,29.7,27.9,00.0,38.4,31.4,09.6,0000.0,0003.29,0009.37,0001.62
2022-05-19 17:33:00,,0813.2,5.00,0.00,29.6,27.2,00.0,38.3,31.2,10.0,0000.0,0003.28,0008.71,0001.62
2022-05-19 17:34:00,,0813.3,5.02,0.00,29.5,27.1,00.0,38.3,31.1,10.3,0000.0,0003.33,0008.66,0001.63
2022-05-19 17:35:00,,0813.3,5.00,0.00,29.4,27.2,00.0,38.3,31.1,10.1,0000.0,0003.34,0008.73,0001.64
2022-05-19 17:36:00,,0813.3,4.99,0.00,29.4,27.3,00.0,38.3,31.1,09.6,0000.0,0003.35,0009.40,0001.66
2022-05-19 17:37:00,,0813.4,5.00,0.00,29.4,27.5,00.0,38.3,31.1,09.9,0000.0,0003.33,0009.70,0001.66
2022-05-19 17:38:00,,0813.5,4.99,0.00,29.4,27.7,00.0,38.3,31.2,09.9,0000.0,0003.37,0010.31,0001.67
2022-05-19 17:39:00,,0813.3,5.00,0.00,29.4,27.8,00.0,38.3,31.2,10.0,0000.0,0003.37,0010.24,0001.68
2022-05-19 17:40:00,,0813.3,4.99,0.00,29.4,28.0,00.0,38.3,31.3,10.3,0000.0,0003.32,0009.65,0001.68
2022-05-19 17:41:00,,0813.4,5.00,0.00,29.4,28.1,00.0,38.3,31.3,09.7,0000.0,0003.26,0009.53,0001.66
2022-05-19 17:42:00,,0813.1,5.01,0.00,29.4,28.2,00.0,38.3,31.3,09.5,0000.0,0003.31,0009.77,0001.68
2022-05-19 17:43:00,,0813.1,5.00,0.00,29.5,28.3,00.0,38.3,31.4,09.5,0000.0,0003.31,0009.81,0001.69
2022-05-19 17:44:00,,0813.1,4.99,0.00,29.5,28.4,00.0,38.3,31.4,09.4,0000.0,0003.37,0009.91,0001.70
2022-05-19 17:45:00,,0813.1,5.00,0.00,29.5,28.5,00.0,38.3,31.4,09.5,0000.0,0003.39,0009.93,0001.70
2022-05-19 17:46:00,,0813.1,4.99,0.00,29.5,28.6,00.0,38.4,31.4,10.0,0000.0,0003.41,0010.02,0001.71
2022-05-19 17:47:00,,0813.1,5.00,0.00,29.6,28.6,00.0,38.4,31.5,10.0,0000.0,0003.43,0009.59,0001.72
2022-05-19 17:48:00,,0813.0,5.00,0.00,29.6,28.7,00.0,38.4,31.5,09.9,0000.0,0003.45,0009.88,0001.73
2022-05-19 17:49:00,,0813.2,5.00,0.00,29.6,28.4,00.0,38.4,31.4,09.3,0000.0,0003.46,0009.40,0001.75
2022-05-19 17:50:00,,0813.1,5.00,0.00,29.6,27.4,00.0,38.3,31.2,09.5,0000.0,0003.48,0009.41,0001.76
2022-05-19 17:51:00,,0813.1,5.00,0.00,29.5,27.0,00.0,38.3,31.1,09.7,0000.0,0003.49,0009.34,0001.78
2022-05-19 17:52:00,,0813.0,5.01,0.00,29.4,27.1,00.0,38.3,31.1,09.5,0000.0,0003.54,0009.31,0001.79
2022-05-19 17:53:00,,0813.0,4.98,0.00,29.4,27.2,00.0,38.2,31.1,10.1,0000.0,0003.54,0009.15,0001.78
2022-05-19 17:54:00,,0813.1,5.00,0.00,29.4,27.4,00.0,38.2,31.1,10.2,0000.0,0003.58,0009.42,0001.79
2022-05-19 17:55:00,,0813.0,5.00,0.00,29.4,27.5,00.0,38.2,31.1,10.1,0000.0,0003.57,0009.43,0001.77
2022-05-19 17:56:00,,0812.9,5.00,0.00,29.3,27.7,00.0,38.2,31.2,09.6,0000.0,0003.61,0009.55,0001.79
2022-05-19 17:57:00,,0812.8,5.00,0.00,29.4,27.9,00.0,38.2,31.2,09.6,0000.0,0003.65,0010.31,0001.80
2022-05-19 17:58:00,,0812.8,5.00,0.00,29.4,28.0,00.0,38.3,31.2,09.5,0000.0,0003.66,0010.33,0001.80
2022-05-19 17:59:00,,0812.8,4.99,0.00,29.4,28.1,00.0,38.3,31.3,09.3,0000.0,0003.61,0009.47,0001.82
